User: anonymous   Login
Location: Cypress Hills Dark-Sky Preserve - CHICO
(49.6176°N, 110.2634°W)
Time: 19:45:37
(UTC-06:00)
Language:

SPOT 5 - Orbit

View from above orbital plane
View from above orbital plane
View from above satellite
View from above satellite

Ground track
Ground track

The orbit data is extracted from the following two-line orbital elements,

1 27421U 02021A   18172.73884135  .00000052  00000-0  23522-4 0  9994
2 27421  98.3584 240.4085 0134226 276.6100  81.9828 14.51935480839295
Epoch (UTC): 21 June 2018 17:43:55
Eccentricity: 0.0134226
inclination: 98.3584°
perigee height: 624 km
apogee height: 814 km
right ascension of ascending node: 240.4085°
argument of perigee: 276.6100°
revolutions per day: 14.51935480
mean anomaly at epoch: 81.9828°
orbit number at epoch: 83929

The dashed part of the orbit path shows where the satellite is in the earth's shadow,  

DLR